User: anonymous   Login
Location: Warszawa
(52.2500°N, 21.0000°E)
Time: 23:35:18
(UTC+02:00)
Language:

CUBEBUG 2 - Orbit

View from above orbital plane
View from above orbital plane
View from above satellite
View from above satellite

Ground track
Ground track

The orbit data is extracted from the following two-line orbital elements,

1 39440U 13066AA  24115.40379292  .00010190  00000-0  12131-2 0  9996
2 39440  97.8107  60.2732 0072782  89.9191 271.0363 14.82626811561561
Epoch (UTC): 24 April 2024 09:41:27
Eccentricity: 0.0072782
inclination: 97.8107°
perigee height: 570 km
apogee height: 672 km
right ascension of ascending node: 60.2732°
argument of perigee: 89.9191°
revolutions per day: 14.82626811
mean anomaly at epoch: 271.0363°
orbit number at epoch: 56156

The dashed part of the orbit path shows where the satellite is in the earth's shadow,  

DLR